Home > Weather > Genoa > Past weeks

Flag for Italy Past Weather in Genoa, Italy — Yesterday and Last 2 Weeks

Now
81 °F

Scattered clouds.


Feels Like: 84 °F
Forecast: 71 / 80 °F
Wind: 6 mph from South

Location: Genova / Sestri

Current Time: Jul 30, 2016 at 1:28:30 PM

Latest Report: Jul 30, 2016 at 12:50 PM


Visibility: N/A

Pressure: 30.01 "Hg

Humidity: 70%

Dew Point: 70 °F

Location of GenoaLocation

Past Weather in Genoa — Graph

°F

Genoa Temperature Yesterday

Maximum temperature yesterday: 81 °F (at 12:50 PM)
Minimum temperature yesterday: 72 °F (at 4:50 AM)
Average temperature yesterday: 77 °F

High & Low Weather Summary for the Past Weeks

 TemperatureHumidityPressure
High90 °F (Jul 24, 3:20 PM)83% (Jul 17, 11:20 PM)30.18 "Hg (Jul 17, 11:20 PM)
Low64 °F (Jul 17, 3:20 AM)17% (Jul 15, 5:50 PM)29.89 "Hg (Jul 27, 6:50 PM)
Average76 °F63%30.01 "Hg
* Reported Jul 15 11:20 AM — Jul 30 11:50 AM, Genoa, Weather by CustomWeather, © 2016

Note: Actual official high and low records may vary slightly from our data, if they occured in-between our weather recording intervals... More about our weather records

Advertising

Genoa Weather History for the Previous 24 Hours

Scroll right to see more
 ConditionsComfort  
Time TempWeatherWind HumidityBarometerVisibility
11:50 AM
Sat, Jul 30
81 °FPassing clouds.7 mph66%30.01 "HgN/A
11:20 AM79 °FPassing clouds.9 mph70%30.01 "HgN/A
10:50 AM81 °FPassing clouds.7 mph62%30.01 "HgN/A
10:20 AM79 °FPassing clouds.5 mph65%30.01 "HgN/A
9:50 AM79 °FPassing clouds.5 mph65%30.01 "HgN/A
9:20 AM79 °FPassing clouds.2 mph65%30.01 "HgN/A
8:50 AM79 °FPassing clouds.2 mph65%30.01 "HgN/A
8:20 AM75 °FPassing clouds.5 mph74%30.01 "HgN/A
7:50 AM75 °FSunny.5 mph74%30.01 "Hg10 mi
7:20 AM73 °FPassing clouds.5 mph78%30.01 "HgN/A
6:50 AM72 °FClear.6 mph78%29.98 "Hg10 mi
6:20 AM72 °FClear.5 mph78%29.98 "Hg10 mi
5:50 AM72 °FPassing clouds.6 mph78%29.98 "HgN/A
5:20 AM72 °FClear.6 mph78%29.98 "Hg10 mi
4:50 AM72 °FPassing clouds.6 mph78%29.98 "HgN/A
4:20 AM72 °FClear.6 mph83%29.98 "Hg10 mi
3:50 AM72 °FPassing clouds.5 mph78%29.98 "HgN/A
3:20 AM73 °FPassing clouds.6 mph78%29.98 "HgN/A
2:50 AM73 °FPassing clouds.5 mph78%29.98 "HgN/A
2:20 AM73 °FPassing clouds.6 mph78%29.98 "HgN/A
1:50 AM73 °FPassing clouds.6 mph78%29.98 "HgN/A
1:20 AM73 °FPassing clouds.6 mph78%29.98 "HgN/A
12:50 AM75 °FPassing clouds.5 mph74%29.98 "HgN/A
12:20 AM75 °FPassing clouds.5 mph74%29.98 "HgN/A
11:50 PM
Fri, Jul 29
75 °FPassing clouds.3 mph78%29.98 "HgN/A
11:20 PM75 °FPassing clouds.3 mph78%29.98 "HgN/A
10:50 PM75 °FPassing clouds.2 mph78%29.98 "HgN/A
10:20 PM75 °FPassing clouds.2 mph78%29.98 "HgN/A
9:50 PM77 °FPassing clouds.2 mph74%29.98 "HgN/A
9:20 PM77 °FPassing clouds.2 mph74%29.98 "HgN/A
8:50 PM77 °FPassing clouds.3 mph74%29.95 "HgN/A
8:20 PM77 °FPassing clouds.5 mph74%29.95 "HgN/A
7:50 PM77 °FPassing clouds.5 mph74%29.95 "HgN/A
7:20 PM79 °FPassing clouds.5 mph70%29.95 "HgN/A
6:50 PM79 °FPassing clouds.5 mph70%29.95 "HgN/A
6:20 PM79 °FPassing clouds.3 mph70%29.95 "HgN/A
5:50 PM79 °FPassing clouds.5 mph70%29.98 "HgN/A
5:20 PM81 °FPassing clouds.5 mph66%29.98 "HgN/A
4:50 PM81 °FPassing clouds.5 mph66%29.98 "HgN/A
4:20 PM81 °FPassing clouds.6 mph66%29.98 "HgN/A
3:50 PM81 °FPassing clouds.5 mph66%29.98 "HgN/A
3:20 PM81 °FPassing clouds.5 mph66%29.98 "HgN/A
2:50 PM81 °FPassing clouds.3 mph66%30.01 "HgN/A
2:20 PM81 °FPassing clouds.5 mph66%30.01 "HgN/A
1:50 PM81 °FPassing clouds.6 mph66%30.01 "HgN/A
1:20 PM81 °FPassing clouds.5 mph66%30.01 "HgN/A
Weather by CustomWeather, © 2016

See weather overviewHow to use our weather pages